www.pogodaiklimat.ru

Погода и климат >> Архив погоды >> Япония >> Цуруга


ПОГОДА в Цуруге

  • Прогноз погоды в Цуруге
  • Монитор погоды в Цуруге

АРХИВ ПОГОДЫ в Цуруге

Время (UTC), дата Ветер
(напр.,м/с)
 
Видим.   Явления Облачность Т
(С)
Тd
(С)
f
(%)
Тe
(С)
Тes
(С)
Комфортность P
(гПа)
Po
(гПа)
Тmin
(С)
Tmax
(С)
R
(мм)
R24
(мм)
S
(см)
22 8.09 В 1 20 км н/о +27.2 +24.3 84 +38 +38 очень
душно
1010.8 1009.4
23 8.09 СЗ 1 20 км н/о +28.1 +24.3 80 +39 +39 очень
душно
1011.1 1009.7
00 9.09 С 2 20 км н/о +29.0 +24.3 76 +41 +41 опасность
перегрева
1011.2 1009.8 +26.1
02 9.09 С 5 20 км н/о +31.3 +25.9 73 +47 +47 опасность
перегрева
1011.0 1009.6
03 9.09 С 4 20 км н/о +31.2 +25.6 72 +46 +46 опасность
перегрева
1010.8 1009.4
04 9.09 С 6 20 км н/о +31.1 +25.2 71 +45 +45 опасность
перегрева
1010.4 1009.0
05 9.09 С 5 20 км н/о +30.9 +24.3 68 +43 +43 опасность
перегрева
1009.9 1008.5
06 9.09 С 4 20 км н/о +31.4 +23.0 61 +42 +42 опасность
перегрева
1009.8 1008.4
07 9.09 С 3 20 км н/о +31.1 +23.5 64 +42 +42 опасность
перегрева
1010.0 1008.6
08 9.09 С 4 20 км н/о +30.0 +23.0 66 +40 +40 очень
душно
1010.3 1008.9
09 9.09 С 2 20 км н/о +29.3 +24.2 74 +41 +41 опасность
перегрева
1010.6 1009.2
10 9.09 В 1 20 км н/о +29.0 +23.2 71 +39 +39 очень
душно
1011.3 1009.9
11 9.09 ЮВ 2 20 км н/о +28.2 +22.7 72 +37 +37 очень
душно
1012.2 1010.8
12 9.09 В 2 20 км н/о +27.9 +23.1 75 +37 +37 очень
душно
1012.8 1011.4 +32.2
15 9.09 Ю 2 20 км н/о +26.2 +22.9 82 +35 +35 очень
душно
1012.9 1011.5
16 9.09 Ю 3 20 км н/о +25.6 +22.7 84 +34 +34 очень
душно
1012.7 1011.3
17 9.09 ЮВ 2 20 км н/о +25.8 +22.3 81 +34 +34 очень
душно
1012.4 1011.0
18 9.09 Ю 2 20 км н/о +25.5 +22.6 84 +34 +34 очень
душно
1012.9 1011.5
19 9.09 Ю 1 20 км н/о +25.6 +22.5 83 +34 +34 очень
душно
1013.2 1011.8
21 9.09 ЮЗ 1 20 км н/о +26.0 +22.9 83 +35 +35 очень
душно
1013.8 1012.4
23 9.09 Ю 4 20 км н/о +29.7 +23.6 70 +41 +41 опасность
перегрева
1014.6 1013.2
00 10.09 Ю 2 20 км н/о +31.5 +24.4 66 +44 +44 опасность
перегрева
1014.6 1013.2 +25.4
01 10.09 С 3 20 км н/о +32.5 +24.0 61 +44 +44 опасность
перегрева
1014.6 1013.2
02 10.09 С 5 20 км н/о +31.7 +25.3 69 +46 +46 опасность
перегрева
1014.2 1012.8
04 10.09 С 5 20 км н/о +32.8 +24.6 62 +46 +46 опасность
перегрева
1013.4 1012.0
05 10.09 С 5 20 км н/о +32.1 +24.2 63 +44 +44 опасность
перегрева
1013.2 1011.8
06 10.09 С 5 20 км н/о +31.0 +24.4 68 +43 +43 опасность
перегрева
1012.8 1011.4
07 10.09 С 4 20 км н/о +31.0 +25.4 72 +45 +45 опасность
перегрева
1013.4 1012.0
08 10.09 С 4 20 км н/о +30.3 +25.6 76 +45 +45 опасность
перегрева
1013.4 1012.0
09 10.09 С 4 20 км н/о +29.2 +25.4 80 +43 +43 опасность
перегрева
1013.4 1012.0
10 10.09 СЗ 2 20 км н/о +28.8 +25.0 80 +42 +42 опасность
перегрева
1014.2 1012.8
11 10.09 С 1 20 км н/о +28.3 +25.1 83 +41 +41 опасность
перегрева
1014.9 1013.5
12 10.09 СЗ 2 20 км н/о +28.2 +25.2 84 +41 +41 опасность
перегрева
1015.0 1013.6 +33.3
13 10.09 ЮЗ 2 20 км н/о +27.6 +24.9 85 +39 +39 очень
душно
1014.5 1013.1
15 10.09 ЮЗ 2 20 км н/о +27.3 +24.4 84 +38 +38 очень
душно
1014.6 1013.2
16 10.09 В 2 20 км н/о +27.2 +24.7 86 +39 +39 очень
душно
1014.4 1013.0
17 10.09 ЮЗ 2 20 км н/о +26.8 +24.5 87 +38 +38 очень
душно
1014.4 1013.0
18 10.09 ЮЗ 1 20 км н/о +26.6 +24.1 86 +37 +37 очень
душно
1014.3 1012.9
19 10.09 Ю 3 18 км н/о +26.2 +24.1 88 +36 +36 очень
душно
1013.8 1012.4
20 10.09 Ю 2 20 км н/о +26.4 +23.9 86 +36 +36 очень
душно
1013.8 1012.4
21 10.09 ЮЗ 2 20 км н/о +26.4 +23.7 85 +36 +36 очень
душно
1014.4 1013.0
22 10.09 Ю 2 20 км н/о +28.0 +23.8 78 +39 +39 очень
душно
1014.2 1012.8
23 10.09 Ю 4 20 км н/о +29.5 +23.9 72 +41 +41 опасность
перегрева
1014.2 1012.8
00 11.09 Ю 3 20 км н/о +30.3 +24.0 69 +42 +42 опасность
перегрева
1014.3 1012.9 +26.0
01 11.09 С 3 20 км н/о +29.9 +25.2 76 +43 +43 опасность
перегрева
1014.2 1012.8
02 11.09 С 5 20 км н/о +31.2 +25.1 70 +45 +45 опасность
перегрева
1013.9 1012.5
03 11.09 С 4 20 км н/о +31.0 +25.1 71 +45 +45 опасность
перегрева
1013.4 1012.0
04 11.09 С 4 20 км н/о +31.1 +25.0 70 +45 +45 опасность
перегрева
1012.6 1011.2
05 11.09 С 5 20 км н/о +29.9 +25.7 78 +44 +44 опасность
перегрева
1012.7 1011.3
06 11.09 СЗ 4 16 км слаб. дождь н/о +29.7 +24.8 75 +42 +42 опасность
перегрева
1012.5 1011.1 0.0
07 11.09 СЗ 7 14 км слаб. дождь н/о +27.5 +24.4 83 +39 +39 очень
душно
1012.9 1011.5
08 11.09 С 4 18 км в посл. час дождь н/о +27.0 +23.3 80 +36 +36 очень
душно
1012.9 1011.5
09 11.09 С 3 20 км в посл. час дождь н/о +26.7 +22.5 78 +35 +35 очень
душно
1013.0 1011.6
10 11.09 ЮЗ 2 19 км н/о +26.2 +22.5 80 +34 +34 очень
душно
1013.1 1011.7
11 11.09 СЗ 5 5000 м слаб. дождь н/о +25.4 +23.6 90 +35 +35 очень
душно
1014.2 1012.8
12 11.09 СЗ 5 10 км слаб. дождь н/о +25.3 +23.5 90 +34 +34 очень
душно
1014.0 1012.6 +32.1 3
13 11.09 С 7 20 км в посл. час дождь н/о +25.4 +22.7 85 +33 +33 очень
душно
1014.3 1012.9
14 11.09 С 8 20 км н/о +25.1 +21.8 82 +32 +32 очень
душно
1013.7 1012.3
15 11.09 С 6 20 км {дождь} н/о +25.0 +21.7 82 +32 +32 очень
душно
1013.7 1012.3
16 11.09 СЗ 6 20 км н/о +24.9 +21.4 81 +32 +32 очень
душно
1013.7 1012.3
17 11.09 С 7 20 км н/о +24.9 +21.2 80 +31 +31 очень
душно
1013.5 1012.1
18 11.09 С 8 20 км {дождь} н/о +24.6 +20.5 78 +31 +31 очень
душно
1013.5 1012.1 0.0
19 11.09 С 9 20 км н/о +24.2 +19.9 77 +30 +30 очень
душно
1014.1 1012.7
20 11.09 С 8 20 км н/о +24.0 +18.7 72 +29 +29 душно 1014.4 1013.0
21 11.09 С 7 20 км н/о +23.5 +18.6 74 +28 +28 душно 1014.8 1013.4
23 11.09 С 7 20 км н/о +24.2 +18.2 69 +29 +29 душно 1015.4 1014.0
00 12.09 С 7 20 км н/о +25.9 +18.1 62 +30 +30 душно 1015.5 1014.1 +23.3 0.0
01 12.09 С 7 20 км н/о +26.6 +17.4 57 +31 +31 душно 1015.6 1014.2
02 12.09 С 5 20 км н/о +27.7 +16.7 51 +31 +31 душно 1015.3 1013.9
03 12.09 С 7 20 км н/о +27.6 +15.3 47 +30 +30 жарко 1015.3 1013.9
04 12.09 С 8 20 км н/о +27.7 +15.4 47 +31 +31 душно 1014.3 1012.9
05 12.09 СЗ 6 20 км н/о +27.6 +15.9 49 +31 +31 душно 1014.3 1012.9
06 12.09 СЗ 5 20 км н/о +26.8 +17.0 55 +31 +31 душно 1013.7 1012.3
07 12.09 С 6 20 км н/о +26.3 +17.1 57 +30 +30 душно 1013.9 1012.5
08 12.09 С 5 20 км н/о +25.8 +16.7 57 +29 +29 душно 1013.2 1011.8
09 12.09 СЗ 5 20 км н/о +24.9 +16.4 59 +28 +28 жарко 1013.9 1012.5
10 12.09 С 3 20 км н/о +24.7 +15.6 57 +28 +28 душно 1014.1 1012.7
11 12.09 В 2 20 км н/о +23.6 +16.9 66 +27 +27 жарко 1014.7 1013.3
12 12.09 Ю 3 20 км н/о +22.8 +16.8 69 +28 +28 душно 1015.0 1013.6 +28.8
13 12.09 Ю 2 20 км н/о +22.1 +17.5 75 +27 +27 душно 1014.6 1013.2
15 12.09 Ю 2 20 км н/о +21.5 +17.1 76 +25 +25 комфорт 1014.1 1012.7
16 12.09 Ю 3 20 км н/о +21.3 +16.9 76 +25 +25 комфорт 1013.5 1012.1
18 12.09 ЮВ 2 20 км н/о +21.8 +17.0 74 +26 +26 душно 1013.0 1011.6
19 12.09 Ю 3 20 км н/о +21.8 +17.0 74 +26 +26 душно 1013.4 1012.0
20 12.09 ЮЗ 3 20 км н/о +22.0 +17.2 74 +26 +26 душно 1013.4 1012.0
21 12.09 ЮВ 2 20 км н/о +22.1 +17.7 76 +27 +27 душно 1013.6 1012.2
22 12.09 Ю 1 20 км н/о +22.2 +17.8 76 +27 +27 душно 1014.2 1012.8
23 12.09 Ю 2 20 км слаб. дождь н/о +22.2 +19.0 82 +28 +28 душно 1013.8 1012.4
01 13.09 ЮВ 4 20 км слаб. дождь н/о +24.8 +20.1 75 +30 +30 душно 1013.5 1012.1
02 13.09 ЮВ 3 20 км в посл. час дождь н/о +24.8 +19.9 74 +30 +30 душно 1013.7 1012.3
03 13.09 Ю 3 20 км {дождь} н/о +25.1 +19.7 72 +31 +31 очень
душно
1013.9 1012.5
04 13.09 ЮВ 3 20 км н/о +25.8 +18.7 65 +31 +31 очень
душно
1012.8 1011.4
05 13.09 Ю 3 20 км н/о +26.1 +18.8 64 +31 +31 очень
душно
1012.8 1011.4
06 13.09 Ю 6 20 км {дождь} н/о +26.6 +17.9 59 +31 +31 душно 1012.9 1011.5 0.0
08 13.09 Ю 5 20 км н/о +26.5 +17.0 56 +30 +30 душно 1012.9 1011.5
09 13.09 Ю 8 20 км н/о +25.2 +17.2 61 +29 +29 душно 1012.7 1011.3
10 13.09 ЮВ 7 20 км н/о +24.4 +17.4 65 +28 +28 душно 1013.0 1011.6
11 13.09 ЮВ 5 20 км н/о +24.2 +17.0 64 +28 +28 душно 1013.8 1012.4
13 13.09 ЮВ 5 20 км н/о +23.7 +16.7 65 +27 +27 жарко 1014.4 1013.0
14 13.09 Ю 6 20 км н/о +23.9 +16.4 63 +27 +27 жарко 1013.7 1012.3
15 13.09 Ю 5 20 км н/о +23.9 +16.4 63 +27 +27 жарко 1013.4 1012.0
16 13.09 Ю 4 20 км н/о +23.7 +16.3 63 +27 +27 жарко 1013.1 1011.7
17 13.09 Ю 4 20 км н/о +23.3 +16.1 64 +28 +28 душно 1013.0 1011.6
18 13.09 Ю 5 20 км н/о +23.2 +16.0 64 +28 +28 душно 1013.2 1011.8
19 13.09 Ю 3 20 км н/о +23.3 +16.1 64 +28 +28 душно 1012.7 1011.3
21 13.09 Ю 4 20 км н/о +22.9 +16.7 68 +28 +28 душно 1013.2 1011.8
00 14.09 ЮВ 6 20 км н/о +27.2 +16.5 52 +31 +31 душно 1013.2 1011.8 +22.7
01 14.09 Ю 7 20 км н/о +28.6 +16.2 47 +32 +32 душно 1012.8 1011.4
02 14.09 Ю 6 20 км н/о +29.3 +17.2 48 +33 +33 душно 1012.1 1010.7
03 14.09 Ю 8 20 км н/о +29.8 +17.6 48 +34 +34 очень
душно
1011.6 1010.2
04 14.09 Ю 7 20 км н/о +30.0 +17.1 46 +34 +34 очень
душно
1010.9 1009.5
05 14.09 Ю 6 20 км н/о +30.5 +17.9 47 +35 +35 очень
душно
1010.4 1009.0
06 14.09 Ю 6 20 км н/о +30.3 +18.4 49 +35 +35 очень
душно
1010.1 1008.7
07 14.09 Ю 5 20 км н/о +30.4 +18.5 49 +35 +35 очень
душно
1010.2 1008.8
08 14.09 Ю 6 20 км н/о +29.7 +17.9 49 +34 +34 очень
душно
1010.3 1008.9
09 14.09 Ю 4 20 км н/о +28.2 +18.3 55 +33 +33 очень
душно
1010.6 1009.2
10 14.09 ЮВ 5 20 км н/о +27.2 +18.5 59 +32 +32 очень
душно
1011.1 1009.7
11 14.09 Ю 4 20 км н/о +26.5 +18.1 60 +31 +31 душно 1011.6 1010.2
12 14.09 Ю 4 20 км н/о +26.1 +18.3 62 +31 +31 очень
душно
1011.6 1010.2 +31.0
13 14.09 Ю 4 20 км н/о +25.7 +18.4 64 +30 +30 душно 1011.4 1010.0
14 14.09 Ю 4 20 км н/о +25.4 +18.8 67 +30 +30 душно 1011.4 1010.0
15 14.09 Ю 3 20 км н/о +25.5 +19.4 69 +31 +31 очень
душно
1011.0 1009.6
16 14.09 Ю 3 20 км н/о +25.7 +19.6 69 +31 +31 очень
душно
1010.7 1009.3
17 14.09 Ю 3 20 км н/о +25.4 +19.5 70 +31 +31 очень
душно
1010.6 1009.2
18 14.09 ЮВ 4 20 км н/о +25.5 +19.4 69 +31 +31 очень
душно
1010.6 1009.2
19 14.09 ЮВ 5 20 км н/о +25.4 +19.5 70 +31 +31 очень
душно
1010.5 1009.1
20 14.09 Ю 3 20 км н/о +25.0 +19.8 73 +31 +31 очень
душно
1010.3 1008.9
21 14.09 ЮВ 6 20 км н/о +24.4 +18.6 70 +29 +29 душно 1010.1 1008.7
22 14.09 ЮВ 3 20 км н/о +25.4 +18.4 65 +30 +30 душно 1009.9 1008.5
23 14.09 ЮВ 2 20 км н/о +27.3 +18.6 59 +32 +32 очень
душно
1009.9 1008.5
00 15.09 С 3 20 км н/о +28.6 +19.0 56 +34 +34 очень
душно
1010.2 1008.8 +24.4
01 15.09 С 5 20 км н/о +29.0 +19.1 55 +34 +34 очень
душно
1009.9 1008.5
02 15.09 С 3 20 км н/о +29.5 +20.1 57 +36 +36 очень
душно
1009.2 1007.8
03 15.09 С 6 20 км н/о +29.6 +20.7 59 +37 +37 очень
душно
1008.6 1007.2
04 15.09 С 7 20 км н/о +29.5 +21.5 62 +37 +37 очень
душно
1008.0 1006.6
05 15.09 С 6 20 км н/о +29.7 +21.4 61 +38 +38 очень
душно
1007.6 1006.2
06 15.09 С 6 20 км н/о +29.6 +22.1 64 +38 +38 очень
душно
1007.3 1005.9
07 15.09 СЗ 3 20 км н/о +29.2 +21.2 62 +37 +37 очень
душно
1007.1 1005.7
08 15.09 С 2 20 км н/о +27.8 +20.9 66 +35 +35 очень
душно
1007.2 1005.8
09 15.09 З 2 20 км н/о +27.4 +21.4 70 +35 +35 очень
душно
1007.1 1005.7
10 15.09 С 4 20 км н/о +27.0 +21.3 71 +34 +34 очень
душно
1007.2 1005.8
11 15.09 СЗ 3 20 км н/о +26.6 +20.9 71 +33 +33 очень
душно
1007.7 1006.3
12 15.09 СЗ 3 20 км н/о +26.2 +21.0 73 +33 +33 очень
душно
1007.6 1006.2 +30.5
13 15.09 СЗ 2 20 км н/о +25.7 +20.9 75 +32 +32 очень
душно
1007.4 1006.0
14 15.09 З 2 20 км н/о +25.6 +20.4 73 +32 +32 очень
душно
1007.1 1005.7
16 15.09 С 2 20 км н/о +24.6 +22.1 86 +32 +32 очень
душно
1006.4 1005.0
17 15.09 СЗ 2 20 км н/о +24.9 +22.2 85 +32 +32 очень
душно
1006.3 1004.9
18 15.09 С 2 20 км н/о +24.2 +20.9 82 +30 +30 очень
душно
1006.0 1004.6
19 15.09 З 1 20 км н/о +23.5 +20.6 84 +29 +29 душно 1005.8 1004.4
21 15.09 С 3 20 км н/о +24.4 +21.1 82 +31 +31 очень
душно
1005.5 1004.1

 

Местоположение метеостанции Цуруга (Япония): широта 35.65 долгота 136.06 высота над уровнем моря 12 м.

В архиве по умолчанию представлена погода в Цуруге за последнюю неделю. Архивные данные за месяц целиком и за предыдущие месяцы, начиная с января 2011 года, Вы можете получить, выбрав интересующий диапазон дат из раскрывающегося списка и нажав кнопку "Ввод!".


*Определитесь, кто Вы:
робот инопланетянин человек

Внимание! Время в таблицах - всемирное. Для получения местного времени необходимо прибавить поправку, которая равна 9 ч.

Смотрите также архив погоды в соседних городах и на ближайших метеорологических станциях:

Погода в Хиконе (Япония) (45 км)
Погода в Фукуи (Япония) (47 км)
Погода в Гифу (Япония) (69 км)
Погода в Майдзуру (Япония) (71 км)
Погода в Киото (Япония) (76 км)
Погода в Йоккаити (Япония) (93 км)
Погода в Нагоя (Япония) (98 км)
Погода в Уэно (Япония) (98 км)
Погода в Наре (Япония) (108 км)
Погода в Цу (Япония) (110 км)

Пояснения к столбцам:

Ветер - указаны скорость ветра в м/с - средняя за 10 мин, порывы в срок и между сроками (в фигурных скобках) и направление, откуда дует ветер: С - северный, СВ - северо-восточный, В - восточный, ЮВ - юго-восточный, Ю - южный, ЮЗ - юго-западный, З - западный, СЗ - северо-западный.
Видимость - горизонтальная дальность видимости в метрах или километрах. При видимости от 1 до 10 км при отсутствии осадков обычно наблюдается дымка, при ухудшении видимости до 1 км и менее - туман. В сухую погоду видимость может ухудшаться дымом, пылью или мглою.
Явления - указаны атмосферные явления, наблюдавшиеся в срок или в последний час перед сроком; фигурными скобками обозначены явления, наблюдавшиеся между сроками (за 1-3 часа до срока); квадратными скобками обозначены град или гололедные отложения с указанием их диаметра в мм.
Облачность - указаны через наклонную черту общая и нижняя облачность в баллах и высота нижней границы облаков в метрах; квадратными скобками обозначены формы облаков: Ci - перистые, Cs - перисто-слоистые, Cc - перисто-кучевые, Ac - высококучевые, As - высокослоистые, Sc - слоисто-кучевые, Ns - слоисто-дождевые, Cu - кучевые, Cb - кучево-дождевые. Подробнее классификацию облаков см. в Атласе облаков (PDF).
T - Температура воздуха - температура, измеренная на высоте 2 м над землей.
Td - Температура точки росы - температура, при понижении до которой содержащийся в воздухе водяной пар достигнет насыщения.
f - Относительная влажность воздуха - влажноcть воздуха, измеренная на высоте 2 м над землей.
Te - Эффективная температура - температура, которую ощущает одетый по сезону человек в тени. Характеристика душности погоды. При расчете учитывается влияние влажности воздуха и скорости ветра на теплоощущения человека.
Tes - Эффективная температура на солнце - температура, которую ощущает человек, с поправкой на солнечный нагрев. Характеристика знойности погоды. Зависит от высоты солнца над горизонтом, облачности и скорости ветра. Ночью, в пасмурную погоду, а также при ветре 12 м/с и более поправка равна нулю.
P - Атмосферное давление - приведенное к уровню моря атмосферное давление.
Po - Атмосферное давление - измеренное на уровне метеостанции атмосферное давление.
Tmin - Минимальная температура - минимум температуры воздуха на высоте 2 м над землей.
Tmax - Максимальная температура - максимум температуры воздуха на высоте 2 м над землей.
R - Количество осадков - Количество выпавших осадков за период времени, мм. При наведении курсора мыши на число - период времени, за который выпало указанное количество осадков.
R24 - Количество осадков - Количество выпавших осадков за 24 часа, мм.
S - Снежный покров - Высота снежного покрова, см. При наведении курсора мыши на число - состояние снежного покрова и степень покрытия местности в баллах.